Stations météo

réclame
Mon MeteoGroup
Bastia, France (7790): Température de l'air & dewpoint: 13.06.2018 16:00:00 - 19.06.2018 16:00:00 (CEST)Bastia, France (7790): Température de l'air 5cm: 13.06.2018 16:00:00 - 19.06.2018 16:00:00 (CEST)Bastia, France (7790): Température de l'air -20cm & Température de l'air -100cm: 13.06.2018 16:00:00 - 19.06.2018 16:00:00 (CEST)Bastia, France (7790): Vitesse du vent & gusts: 13.06.2018 16:00:00 - 19.06.2018 16:00:00 (CEST)Bastia, France (7790): Direction du vent: 13.06.2018 16:00:00 - 19.06.2018 16:00:00 (CEST)Bastia, France (7790): reduced air pressure: 13.06.2018 16:00:00 - 19.06.2018 16:00:00 (CEST)Bastia, France (7790): visibility: 13.06.2018 16:00:00 - 19.06.2018 16:00:00 (CEST)Bastia, France (7790): Ensoleillement: 13.06.2018 16:00:00 - 19.06.2018 16:00:00 (CEST)Bastia, France (7790): Quantités de précipitations: 13.06.2018 16:00:00 - 19.06.2018 16:00:00 (CEST)
Date & Time tt [°C] td [°C] tt 5cm [°C] tt -20cm [°C] tt -100cm [°C] ff [km/h] ff [knt] fx [km/h] fx [knt] dd ppp [hPa] vv [km] sd [min] rr [mm]
19.06.2018 16:00:00 31,0 14,2 40,2 23,7 20,3 12 7 21 12 N 1018,0 52 60 0,0
19.06.2018 15:00:00 30,4 14,9 39,1 23,6 20,3 11 6 23 12 N 1018,3 53 60 0,0
19.06.2018 14:00:00 29,9 14,0 40,7 23,5 20,2 11 6 22 12 N 1018,7 49 60 0,0
19.06.2018 13:00:00 29,2 15,3 38,9 23,5 20,3 11 6 30 16 NE 1019,0 20 60 0,0
19.06.2018 12:00:00 28,7 16,3 36,2 23,5 20,3 14 7 24 13 N 1019,1 20 60 0,0
19.06.2018 11:00:00 28,2 16,5 30,0 23,6 20,3 15 8 25 14 N 1019,1 20 60 0,0
19.06.2018 10:00:00 28,0 16,0 26,5 23,7 20,3 10 6 18 10 N 1019,2 43 60 0,0
19.06.2018 09:00:00 25,8 17,2 22,6 23,8 20,3 7 4 13 7 SSW 1018,8 20 60 0,0
19.06.2018 08:00:00 23,4 16,9 18,2 23,9 20,4 6 3 11 6 SW 1018,5 38 60 0,0
19.06.2018 07:00:00 21,0 15,5 15,5 24,0 20,4 7 4 14 8 SW 1018,2 30 51 0,0
19.06.2018 06:00:00 19,0 14,5 15,2 24,1 20,4 8 5 12 6 SW 1017,7 48 0 0,0
19.06.2018 05:00:00 18,6 14,5 15,6 24,2 20,4 8 4 11 6 SSW 1017,5 48 0 0,0
19.06.2018 04:00:00 19,2 14,5 16,2 24,3 20,4 8 5 12 7 SSW 1017,4 51 0 0,0
19.06.2018 03:00:00 19,5 14,7 15,9 24,3 20,4 9 5 11 6 SW 1017,3 53 0 0,0
19.06.2018 02:00:00 19,4 14,9 16,2 24,4 20,3 8 4 13 7 SW 1017,0 50 0 0,0
19.06.2018 01:00:00 19,6 14,8 16,2 24,4 20,3 8 4 10 5 SSW 1017,3 51 0 0,0
19.06.2018 00:00:00 20,2 15,6 16,6 24,4 20,3 6 3 9 5 SW 1017,0 50 0 0,0
18.06.2018 23:00:00 21,1 16,1 17,1 24,3 20,3 6 4 9 5 SW 1016,7 44 0 0,0
18.06.2018 22:00:00 22,6 16,4 18,1 24,3 20,3 5 3 9 5 WSW 1016,1 33 0 0,0
18.06.2018 21:00:00 24,7 17,7 20,4 24,2 20,3 4 2 14 8 WSW 1015,4 20 26 0,0
18.06.2018 20:00:00 27,1 17,8 24,8 24,0 20,2 7 4 18 10 N 1015,2 50 60 0,0
18.06.2018 19:00:00 27,4 17,3 29,2 23,9 20,2 16 8 25 14 NNW 1015,0 50 60 0,0
18.06.2018 18:00:00 28,2 18,0 29,8 23,7 20,1 16 9 23 12 N 1014,9 50 60 0,0
18.06.2018 17:00:00 28,0 19,5 36,7 23,5 20,1 16 9 23 13 N 1015,1 45 60 0,0
18.06.2018 16:00:00 28,1 18,8 38,4 23,3 20,1 15 8 35 19 N 1015,3 48 60 0,0
18.06.2018 15:00:00 27,9 19,7 37,5 23,2 20,1 15 8 30 16 NNE 1015,5 19 60 0,0
18.06.2018 14:00:00 26,8 20,2 38,2 23,2 20,1 16 8 26 14 N 1015,8 36 60 0,0
18.06.2018 13:00:00 26,4 19,3 38,2 23,2 20,1 16 8 26 14 NNE 1016,0 20 60 0,0
18.06.2018 12:00:00 26,3 19,9 36,2 23,2 20,1 17 9 26 14 NNE 1016,0 39 60 0,0
18.06.2018 11:00:00 25,9 19,8 30,5 23,2 20,1 11 6 32 17 NE 1015,6 20 60 0,0
18.06.2018 10:00:00 25,5 20,5 25,1 23,3 20,1 12 7 19 10 NNE 1015,5 45 60 0,0
18.06.2018 09:00:00 24,7 19,8 21,7 23,4 20,1 3 2 11 6 N 1015,1 20 60 0,0
18.06.2018 08:00:00 22,0 18,6 17,1 23,5 20,2 3 2 8 5 S 1015,1 28 47 0,0
18.06.2018 07:00:00 19,8 17,0 14,5 23,6 20,2 7 4 12 6 WSW 1014,7 14 43 0,0
18.06.2018 06:00:00 18,0 16,3 14,5 23,6 20,2 5 3 9 5 S 1014,4 9 0 0,0
18.06.2018 05:00:00 19,0 16,6 14,4 23,7 20,2 8 4 10 6 WSW 1014,0 7 0 0,0
18.06.2018 04:00:00 18,9 16,7 14,3 23,8 20,2 6 3 9 5 SW 1013,9 9 0 0,0
18.06.2018 03:00:00 19,5 17,1 15,5 23,9 20,2 7 4 13 7 S 1014,2 18 0 0,0
18.06.2018 02:00:00 20,1 17,3 15,0 23,9 20,2 9 5 13 7 SW 1014,6 44 0 0,0
18.06.2018 01:00:00 19,8 17,2 15,5 23,9 20,2 3 2 12 7 SW 1014,8 46 0 0,0
18.06.2018 00:00:00 20,0 17,8 16,0 23,9 20,2 5 3 9 5 S 1014,8 34 0 0,0
17.06.2018 23:00:00 20,2 18,0 16,3 23,9 20,2 4 2 7 4 SW 1014,5 37 0 0,0
17.06.2018 22:00:00 21,6 18,2 17,5 23,8 20,1 6 3 9 5 WSW 1014,3 43 0 0,0
17.06.2018 21:00:00 22,5 18,5 18,9 23,7 20,1 6 3 9 5 SSE 1013,9 20 24 0,0
17.06.2018 20:00:00 24,5 18,2 22,8 23,5 20,1 6 4 19 10 ENE 1013,8 50 60 0,0
17.06.2018 19:00:00 25,7 18,1 28,3 23,4 20,0 10 5 15 8 NE 1013,5 60 60 0,0
17.06.2018 18:00:00 26,2 19,6 29,6 23,2 20,0 8 4 17 9 ENE 1013,4 57 60 0,0
17.06.2018 17:00:00 26,9 18,5 35,7 23,1 20,0 10 5 21 11 E 1013,9 43 60 0,0
17.06.2018 16:00:00 26,9 16,2 37,4 22,9 20,0 11 6 21 11 E 1014,3 60 60 0,0
17.06.2018 15:00:00 27,9 17,4 38,0 22,8 19,9 11 6 22 12 ENE 1014,4 59 60 0,0
17.06.2018 14:00:00 27,1 18,7 36,3 22,8 20,0 12 7 23 13 E 1014,7 60 60 0,0
17.06.2018 13:00:00 26,7 17,7 35,0 22,8 20,0 10 5 19 10 ENE 1015,0 60 56 0,0
17.06.2018 12:00:00 26,4 17,2 31,1 22,8 20,0 12 7 20 11 E 1014,9 60 60 0,0
17.06.2018 11:00:00 26,0 18,9 26,7 22,9 20,0 8 5 15 8 SE 1014,4 43 42 0,0
17.06.2018 10:00:00 24,8 17,0 24,8 23,0 20,0 6 3 13 7 S 1014,5 55 50 0,0
17.06.2018 09:00:00 23,8 17,5 20,5 23,1 20,0 5 3 11 6 S 1014,6 54 60 0,0
17.06.2018 08:00:00 21,9 15,5 17,2 23,1 20,0 7 4 16 9 SW 1014,3 53 51 0,0
17.06.2018 07:00:00 20,2 13,9 16,1 23,2 20,1 10 5 26 14 WSW 1013,7 60 47 0,0
17.06.2018 06:00:00 19,6 13,8 15,9 23,3 20,1 14 7 25 13 SW 1013,2 60 0 0,0
17.06.2018 05:00:00 19,8 14,2 16,2 23,4 20,1 17 9 31 17 SW 1013,1 60 0 0,0
17.06.2018 04:00:00 20,1 14,9 16,1 23,5 20,1 13 7 25 13 SW 1013,2 60 0 0,0
17.06.2018 03:00:00 20,2 15,4 15,4 23,5 20,1 11 6 23 12 SW 1013,3 60 0 0,0
17.06.2018 02:00:00 19,7 16,0 15,1 23,6 20,1 9 5 13 7 SSW 1013,3 60 0 0,0
17.06.2018 01:00:00 20,6 16,0 15,4 23,6 20,0 7 4 19 10 WSW 1013,5 57 0 0,0
17.06.2018 00:00:00 21,2 16,6 15,0 23,6 20,1 10 5 15 8 SW 1013,4 60 0 0,0
16.06.2018 23:00:00 21,3 15,8 15,4 23,6 20,0 5 3 12 6 SW 1013,1 60 0 0,0
16.06.2018 22:00:00 21,0 15,5 16,4 23,5 20,0 5 3 9 5 SE 1012,6 56 0 0,0
16.06.2018 21:00:00 22,9 16,2 18,4 23,4 20,0 3 2 27 14 SE 1012,0 11 2 0,0
16.06.2018 20:00:00 26,1 14,9 22,8 23,3 20,0 18 10 29 16 NNW 1011,7 38 60 0,0
16.06.2018 19:00:00 28,3 13,4 27,6 23,1 19,9 14 8 31 17 NE 1011,6 58 60 0,0
16.06.2018 18:00:00 27,7 12,9 28,5 22,9 19,9 8 4 22 12 NNE 1011,6 44 60 0,0
16.06.2018 17:00:00 27,4 14,4 35,3 22,7 19,9 11 6 23 13 N 1012,0 60 60 0,0
16.06.2018 16:00:00 27,9 13,0 36,0 22,6 19,9 11 6 27 14 NNE 1012,3 59 60 0,0
16.06.2018 15:00:00 28,1 12,0 36,3 22,5 19,9 14 8 28 15 N 1012,4 48 60 0,0
16.06.2018 14:00:00 27,3 13,6 37,4 22,4 19,9 8 5 31 17 N 1012,6 31 60 0,0
16.06.2018 13:00:00 27,3 13,6 35,9 22,4 19,9 16 9 41 22 N 1013,0 48 60 0,0
16.06.2018 12:00:00 26,4 14,2 33,1 22,4 19,9 22 12 32 18 N 1013,3 51 60 0,0
16.06.2018 11:00:00 25,9 14,4 27,2 22,5 19,9 14 7 32 17 N 1012,9 55 60 0,0
16.06.2018 10:00:00 25,8 14,3 24,3 22,6 20,0 15 8 29 15 N 1012,7 48 60 0,0
16.06.2018 09:00:00 25,1 13,6 20,8 22,7 19,9 16 9 25 13 N 1012,5 49 60 0,0
16.06.2018 08:00:00 21,8 14,9 17,0 22,8 20,0 8 4 17 9 SW 1012,2 60 60 0,0
16.06.2018 07:00:00 19,4 14,2 15,4 22,9 20,0 7 4 12 6 SW 1012,3 57 52 0,0
16.06.2018 06:00:00 18,4 13,3 15,2 22,9 20,0 7 4 11 6 SW 1012,3 60 0 0,0
16.06.2018 05:00:00 18,7 13,1 15,5 23,0 20,0 5 3 13 7 SSW 1012,0 60 0 0,0
16.06.2018 04:00:00 19,3 13,2 15,2 23,1 20,0 8 5 19 10 SSW 1011,9 60 0 0,0
16.06.2018 03:00:00 20,5 12,7 15,6 23,1 20,0 8 4 18 10 SW 1011,9 60 0 0,0
16.06.2018 02:00:00 21,4 12,5 16,2 23,2 20,0 12 7 22 12 SW 1011,9 60 0 0,0
16.06.2018 01:00:00 21,3 12,7 16,0 23,2 20,0 9 5 19 11 SW 1011,9 60 0 0,0
16.06.2018 00:00:00 22,0 12,3 14,8 23,2 20,0 11 6 16 9 WSW 1011,8 60 0 0,0
15.06.2018 23:00:00 20,2 13,2 15,2 23,2 20,0 5 3 11 6 SW 1011,6 60 0 0,0
15.06.2018 22:00:00 21,1 13,8 16,2 23,1 20,0 2 1 17 9 SSE 1011,3 60 0 0,0
15.06.2018 21:00:00 23,1 13,3 18,2 23,0 20,0 9 5 21 12 NW 1011,1 60 5 0,0
15.06.2018 20:00:00 24,7 12,6 21,6 22,9 19,9 13 7 26 14 NNW 1010,7 60 45 0,0
15.06.2018 19:00:00 25,9 15,9 27,4 22,7 19,9 16 9 28 15 N 1010,4 56 60 0,0
15.06.2018 18:00:00 26,8 15,8 28,1 22,5 19,9 16 9 25 13 N 1010,0 53 60 0,0
15.06.2018 17:00:00 26,8 15,8 34,7 22,4 19,8 15 8 25 14 N 1010,3 57 60 0,0
15.06.2018 16:00:00 26,9 15,0 35,9 22,2 19,9 17 9 29 16 NNE 1010,5 54 60 0,0
15.06.2018 15:00:00 26,6 14,4 36,3 22,1 19,8 17 9 29 15 NNE 1010,8 59 60 0,0
15.06.2018 14:00:00 26,7 13,8 36,7 22,1 19,9 16 9 30 16 N 1011,0 60 60 0,0
15.06.2018 13:00:00 26,7 13,1 35,8 22,0 19,9 11 6 30 16 N 1010,9 60 60 0,0
15.06.2018 12:00:00 26,0 16,3 33,6 22,0 19,9 13 7 24 13 N 1011,1 60 60 0,0
15.06.2018 11:00:00 25,9 17,0 27,1 22,1 19,9 16 9 25 14 N 1011,0 60 60 0,0
15.06.2018 10:00:00 24,8 15,1 24,8 22,1 19,9 9 5 24 13 N 1010,8 59 58 0,0
15.06.2018 09:00:00 24,5 15,7 21,2 22,2 19,9 8 4 16 9 NNE 1010,9 60 54 0,0
15.06.2018 08:00:00 21,6 15,7 17,5 22,3 19,9 8 4 13 7 SW 1010,4 60 60 0,0
15.06.2018 07:00:00 20,0 14,8 15,2 22,3 19,9 8 5 14 8 SW 1010,4 55 52 0,0
15.06.2018 06:00:00 17,9 14,6 15,1 22,4 20,0 9 5 14 7 SW 1010,1 60 0 0,0
15.06.2018 05:00:00 18,6 14,7 15,3 22,5 20,0 9 5 17 9 SW 1009,7 60 0 0,0
15.06.2018 04:00:00 19,3 15,0 15,9 22,5 20,0 9 5 15 8 SW 1009,6 60 0 0,0
15.06.2018 03:00:00 19,8 15,0 16,6 22,6 20,0 8 5 16 9 SW 1009,8 60 0 0,0
15.06.2018 02:00:00 20,5 15,1 17,4 22,6 19,9 11 6 18 10 SW 1009,7 60 0 0,0
15.06.2018 01:00:00 21,0 14,9 17,7 22,6 20,0 11 6 21 12 SW 1009,7 60 0 0,0
15.06.2018 00:00:00 20,9 15,2 16,2 22,6 19,9 8 5 11 6 WSW 1009,7 60 0 0,0
14.06.2018 23:00:00 19,0 15,7 16,0 22,6 20,0 5 3 11 6 SW 1009,3 59 0 0,0
14.06.2018 22:00:00 19,2 16,2 16,5 22,5 20,0 6 3 11 6 SSW 1009,1 43 0 0,0
14.06.2018 21:00:00 21,9 15,0 18,4 22,4 20,0 7 4 15 8 WSW 1008,5 60 24 0,0
14.06.2018 20:00:00 24,4 15,3 22,5 22,3 19,9 10 5 25 14 NW 1008,3 60 60 0,0
14.06.2018 19:00:00 25,0 15,0 25,7 22,2 19,9 19 10 30 16 WNW 1007,9 45 60 0,0
14.06.2018 18:00:00 25,6 16,2 26,7 22,1 19,9 14 7 31 17 WNW 1007,7 54 55 0,0
14.06.2018 17:00:00 26,0 13,8 24,6 21,9 19,9 17 9 36 19 N 1007,8 40 56 0,0
14.06.2018 16:00:00 24,7 15,1 24,1 21,7 19,9 16 9 29 16 N 1007,8 60 43 0,0
14.06.2018 15:00:00 23,0 17,0 23,4 21,6 19,9 19 11 30 16 NW 1008,3 53 20 0,0
14.06.2018 14:00:00 25,2 18,9 26,5 21,6 19,9 21 12 34 18 N 1008,1 42 35 0,0
14.06.2018 13:00:00 24,9 18,6 34,2 21,5 19,9 24 13 35 19 NNE 1008,0 60 57 0,0
14.06.2018 12:00:00 25,1 17,3 32,3 21,5 19,9 14 8 25 13 NNE 1007,6 60 60 0,0
14.06.2018 11:00:00 24,2 17,2 26,0 21,6 19,9 10 5 25 13 N 1007,6 60 60 0,0
14.06.2018 10:00:00 23,1 17,6 22,1 21,6 19,9 12 6 24 13 N 1007,3 60 60 0,0
14.06.2018 09:00:00 22,3 17,4 17,6 21,7 19,9 7 4 17 9 NNE 1007,2 60 51 0,0
14.06.2018 08:00:00 19,0 16,0 15,4 21,8 20,0 8 5 13 7 SW 1006,9 58 27 0,0
14.06.2018 07:00:00 17,1 14,9 14,1 21,9 20,0 10 5 14 7 SW 1006,7 60 0 0,0
14.06.2018 06:00:00 16,4 14,4 13,9 21,9 20,0 8 4 15 8 SW 1006,4 60 0 0,0
14.06.2018 05:00:00 16,7 14,5 14,4 22,0 20,0 8 4 17 9 WSW 1006,3 60 0 0,2
14.06.2018 04:00:00 16,2 14,6 14,2 22,1 20,0 7 4 12 6 SSW 1005,9 60 0 0,0
14.06.2018 03:00:00 16,3 14,8 13,5 22,1 19,9 8 4 13 7 W 1006,3 60 0 0,0
14.06.2018 02:00:00 15,8 14,8 13,2 22,2 20,0 4 2 9 5 WSW 1006,5 54 0 0,0
14.06.2018 01:00:00 16,4 15,6 13,2 22,3 20,0 5 3 9 5 SW 1006,2 58 0 0,0
14.06.2018 00:00:00 16,7 15,4 14,6 22,3 20,0 6 3 9 5 WNW 1006,2 59 0 0,0
13.06.2018 23:00:00 17,4 15,7 15,8 22,3 20,0 6 4 13 7 W 1005,9 50 0 0,0
13.06.2018 22:00:00 18,0 16,5 16,7 22,3 19,9 9 5 15 8 W 1005,5 51 0 0,0
13.06.2018 21:00:00 19,0 17,7 17,8 22,3 19,9 6 3 11 6 WSW 1005,1 48 35 0,0
13.06.2018 20:00:00 19,2 18,2 16,9 22,3 19,9 7 4 16 9 WSW 1004,8 47 23 0,8
13.06.2018 19:00:00 17,3 15,3 16,8 22,2 20,0 8 4 61 33 NNW 1005,1 12 7 7,0
13.06.2018 18:00:00 21,7 17,3 24,3 22,2 19,9 11 6 25 14 N 1004,4 60 45 0,2
13.06.2018 17:00:00 21,3 16,7 20,8 22,2 19,9 17 9 26 14 NNW 1004,9 60 13 0,0
13.06.2018 16:00:00 20,0 17,4 17,9 22,2 19,9 11 6 28 15 W 1005,1 58 0 0,2

tt = Température de l'air
td = dewpoint
tt 5cm = Température de l'air 5cm
tt -20cm = Température de l'air -20cm
tt -100cm = Température de l'air -100cm
ff = Vitesse du vent
fx = gusts
dd = Direction du vent
ppp = reduced air pressure
vv = visibility
sd = Ensoleillement
rr = Quantités de précipitations

stations d'obs. à proximité